THOR BURNER 2 R/B, 2741

Orbit data source: Space-Track

THOR BURNER 2 R/B, 2741 is space debris in SSO originally from a launch on Wed, 08 Feb 1967 UTC launched from the Air Force Western Test Range (AFWTR). Debris objects in space refer to the collection of defunct objects orbiting the Earth. Examples of debris include non-operational satellites, rocket bodies, and fragments generated from explosions, collisions, or faulty payload assembly.

Loading next visibility...
Identifier
2741, 1967-010B
Orbit
SSO
Country
Flag of USUS
Related business
Manufacturer
Thiokol/TE
Mission
Spacecraft
Bus & Motor
STAR 37, Unknown motor
Mass
136 kg wet, 136 kg dry
Launch date (UTC)
1967-02-08 (59 years ago)
Launch vehicle
Unknown
Launch site
Air Force Western Test Range (AFWTR)
Object type
Payload
Rocket body
Debris
Shape & HBR
Unknown
Radar Cross Section
Large (>1 m²)

Expand to show TLE details & history
Last TLE update: 17 hours ago

TLE from 17 hours ago
0 THOR BURNER 2 R/B
1 02741U 67010B   26073.41451317  .00000192  00000-0  92533-4 0  9990
2 02741  98.9645  24.5194 0052060 199.2843 160.6368 14.29210075 71730
Epoch: 2026-03-14T09:56Z
TLE epoch observation values (Epoch: 2026-03-14T09:56:53.937Z)
Latitude
-0.00009°
Longitude
63.25864°
Altitude
832.547 km
Speed
7.418 km/s
True Right ascension
01h 38m 04s
True Declination
0° 00' 00"
Sunlit
Object was in daylight at epoch
Visualization orbit readout
Latitude
Unknown
Longitude
Unknown
Altitude
Unknown
Speed
Unknown
Apparent Right ascension
Unknown
Apparent Declination
Unknown
Sunlit
N/A
Visualization observer readout
Local Sidereal Time
07:33:13
Azimuth
Unknown
Elevation
Unknown
Doppler factor
Unknown
Orbital elements
Apogee altitude
828.856 km
Perigee altitude
754.206 km
Semi-major axis
7,169.668 km
Eccentricity
0.00521
Inclination
98.9645°
RAAN
24.5194°
Arg. of periapsis
199.2843°
True anomaly
160.83339°
Mean anomaly
160.6368°
Eccentric anomaly
160.73521°
Mean motion
3.57515 °/min
Orbital period
100.69 mins
BSTAR
0.000092533
Loading maneuver chart data...
Computing Atmospheric mass density...
Loading historical data...
Loading historical data...
Loading historical data...
Loading historical data...
Loading historical data...
Loading historical data...
Loading historical data...
Other satellites on launch #10 in the year 1967 (1967-02-08 UTC)

Documentation

Showing up to 5 results
|